ATLAS 5 CENTAUR DEB, 55850

Orbit data source: Space-Track

ATLAS 5 CENTAUR DEB, 55850 is space debris in HEO originally from a launch on Wed, 17 Oct 2018 UTC launched from the Air Force Eastern Test Range (AFETR). Debris objects in space refer to the collection of defunct objects orbiting the Earth. Examples of debris include non-operational satellites, rocket bodies, and fragments generated from explosions, collisions, or faulty payload assembly.

Loading next visibility...
Identifier
55850, 2018-079HC
Orbit
HEO
Country
Flag of USUS
Related business
Flag of USUnited Launch Alliance/Lockheed Martin (US)
Manufacturer
ULA Decatur
Mission
Spacecraft
Bus & Motor
Unknown
Mass
Unknown
Launch date (UTC)
2018-10-17 (7 years ago)
Launch vehicle
Unknown
Launch site
Air Force Eastern Test Range (AFETR)
Object type
Payload
Rocket body
Debris
Shape & HBR
Unknown shape, 1.1 m
Radar Cross Section
RCS unknown

Expand to show TLE details & history
Last TLE update: 1 day ago

TLE from 1 day ago
0 ATLAS 5 CENTAUR DEB
1 55850U 18079HC  25295.82743773 -.00000089  00000-0  00000-0 0  9990
2 55850  13.3376  48.3455 4930798 285.9542  26.8005  1.79148742 20749
Epoch: 2025-10-22T19:51Z
TLE epoch observation values (Epoch: 2025-10-22T19:51:30.619Z)
Latitude
0.00003°
Longitude
78.90289°
Altitude
12,697.094 km
Speed
5.28 km/s
True Right ascension
03h 13m 06s
True Declination
0° 00' 00"
Sunlit
Object was in daylight at epoch
Visualization orbit readout
Latitude
Unknown
Longitude
Unknown
Altitude
Unknown
Speed
Unknown
Apparent Right ascension
Unknown
Apparent Declination
Unknown
Sunlit
N/A
Visualization observer readout
Local Sidereal Time
20:14:19
Azimuth
Unknown
Elevation
Unknown
Doppler factor
Unknown
Orbital elements
Apogee altitude
36,382.275 km
Perigee altitude
8,139.584 km
Semi-major axis
28,639.067 km
Eccentricity
0.49308
Inclination
13.3376°
RAAN
48.3455°
Arg. of periapsis
285.9542°
True anomaly
74.36983°
Mean anomaly
26.8005°
Eccentric anomaly
47.69417°
Mean motion
0.44782 °/min
Orbital period
803.89 mins
BSTAR
0
Loading maneuver chart data...
Computing Atmospheric mass density...

Documentation

Showing up to 5 results
|